EA1IDU Weather Reports


time (UTC)temp
F
wind
direction
speed
knots
gust
knots
rain 1hr
in
rain 24hr
in
rain mn
in
humidity
%
barometer
mb
20260503022052 51 177 2.6 5.2 0.00 0.28 0.00 89 1015.3
20260503021047 51 170 3.5 5.2 0.00 0.28 0.00 89 1015.3
20260503020043 51 182 0.9 3.5 0.00 0.28 0.00 89 1015.3
20260503015037 51 189 3.5 5.2 0.00 0.28 0.00 89 1015.4
20260503014032 50 193 2.6 5.2 0.00 0.28 0.00 90 1015.5
20260503013027 50 177 3.5 6.1 0.00 0.28 0.00 90 1015.6
20260503012023 50 177 3.5 5.2 0.00 0.28 0.00 90 1015.7
20260503011018 50 214 2.6 3.5 0.00 0.28 0.00 90 1015.8
20260503010133 50 212 2.6 3.5 0.00 0.28 0.00 90 1015.9
20260503005108 50 205 1.7 3.5 0.00 0.28 0.00 89 1016.1
20260503004103 50 191 4.3 6.1 0.00 0.28 0.00 89 1016.2
20260503003057 50 220 1.7 3.5 0.00 0.28 0.00 89 1016.1
20260503002052 50 185 1.7 3.5 0.00 0.28 0.00 89 1016.1
20260503001048 50 210 1.7 3.5 0.00 0.28 0.00 89 1016.2
20260503000042 50 203 2.6 5.2 0.00 0.28 0.00 90 1016.2
20260502235037 51 221 0.9 1.7 0.00 0.28 0.00 90 1016.4
20260502234033 51 234 2.6 3.5 0.00 0.28 0.00 90 1016.3
20260502233028 51 217 1.7 3.5 0.00 0.28 0.00 89 1016.4
20260502232022 52 241 0.9 3.5 0.00 0.28 0.00 88 1016.3
20260502231018 52 215 1.7 3.5 0.00 0.28 0.00 87 1016.2
20260502230112 52 194 1.7 3.5 0.00 0.28 0.00 87 1016.2
20260502225108 52 190 0.9 1.7 0.00 0.28 0.00 88 1016.3
20260502224102 52 192 0.9 1.7 0.00 0.28 0.00 88 1016.2
20260502223057 52 149 0.9 3.5 0.00 0.28 0.00 88 1016.3
20260502222112 52 154 1.7 3.5 0.00 0.28 0.00 87 1016.2
20260502221047 52 136 3.5 6.1 0.00 0.28 0.00 87 1016.0
20260502215037 52 131 3.5 7.8 0.00 0.28 0.28 87 1016.2
20260502214032 52 115 3.5 7.0 0.00 0.28 0.28 88 1016.2
20260502213027 53 142 2.6 3.5 0.00 0.28 0.28 87 1016.3
20260502212022 53 119 3.5 5.2 0.00 0.28 0.28 87 1016.3
20260502211038 53 161 2.6 5.2 0.00 0.28 0.28 87 1016.4
20260502210132 53 158 2.6 5.2 0.00 0.28 0.28 87 1016.3
20260502205107 53 151 3.5 5.2 0.00 0.28 0.28 88 1016.4
20260502204102 53 140 3.5 5.2 0.00 0.28 0.28 88 1016.3
20260502203057 53 150 1.7 3.5 0.00 0.28 0.28 89 1016.2
20260502202052 53 123 0.0 1.7 0.00 0.28 0.28 89 1016.1
20260502201047 53 124 0.9 1.7 0.00 0.28 0.28 89 1016.0
20260502195037 53 130 0.9 1.7 0.00 0.28 0.28 88 1015.8
20260502194053 53 113 0.9 3.5 0.00 0.28 0.28 88 1015.8
20260502193127 53 110 1.7 3.5 0.00 0.28 0.28 88 1015.8
20260502192022 54 103 0.0 3.5 0.01 0.28 0.28 89 1015.8
20260502191017 54 135 0.9 3.5 0.02 0.28 0.28 88 1015.7
20260502190112 54 118 2.6 3.5 0.02 0.28 0.28 87 1015.6
20260502185107 54 101 0.9 3.5 0.02 0.28 0.28 88 1015.6
20260502184102 54 78 1.7 3.5 0.02 0.28 0.28 87 1015.6
20260502183058 54 205 1.7 3.5 0.02 0.28 0.28 85 1015.9
20260502182113 55 196 5.2 7.0 0.01 0.27 0.27 81 1016.0
20260502181047 55 236 0.0 1.7 0.00 0.26 0.26 79 1015.4
20260502170113 54 179 3.5 6.1 0.05 0.26 0.26 84 1016.0
20260502164103 55 212 6.1 7.8 0.05 0.22 0.22 80 1016.1
20260502163118 54 165 3.5 5.2 0.04 0.21 0.21 80 1015.9
20260502162053 54 203 0.9 3.5 0.04 0.21 0.21 79 1015.8
20260502161048 55 215 1.7 6.1 0.04 0.21 0.21 78 1015.8
20260502152023 59 210 7.8 12.2 0.00 0.18 0.18 72 1015.9
20260502151019 59 205 7.8 12.2 0.00 0.18 0.18 74 1015.9
20260502150154 59 183 7.8 12.2 0.00 0.18 0.18 74 1016.1
20260502130112 54 193 15.6 23.5 0.01 0.11 0.11 79 1018.3
20260502123057 56 178 7.8 13.0 0.04 0.09 0.09 85 1017.6
20260502122052 55 190 5.2 9.6 0.05 0.09 0.09 87 1017.6
20260502121047 55 211 5.2 9.6 0.09 0.09 0.09 87 1018.0
20260502115037 54 245 3.5 6.1 0.09 0.09 0.09 90 1018.3
20260502114032 54 247 4.3 7.8 0.09 0.09 0.09 89 1018.4
20260502113028 55 213 8.7 14.8 0.06 0.06 0.06 86 1018.6
20260502112044 57 207 11.3 18.2 0.05 0.05 0.05 81 1018.3
20260502111017 60 189 8.7 17.4 0.00 0.00 0.00 73 1017.5
20260502110113 60 204 8.7 13.0 0.00 0.00 0.00 73 1017.2
20260502105107 61 161 11.3 21.7 0.00 0.00 0.00 71 1017.3
20260502104123 61 200 8.7 13.9 0.00 0.00 0.00 71 1017.7
20260502103058 60 167 9.6 15.6 0.00 0.00 0.00 72 1018.0
20260502102053 60 174 10.4 20.9 0.00 0.00 0.00 71 1018.1
20260502101109 60 173 8.7 19.1 0.00 0.00 0.00 70 1018.4
20260502100104 60 180 8.7 13.0 0.00 0.00 0.00 70 1018.5
20260502091018 58 164 7.0 9.6 0.00 0.00 0.00 81 1018.5
20260502090114 58 172 5.2 12.2 0.00 0.00 0.00 83 1018.8
20260502071019 58 167 6.1 11.3 0.00 0.00 0.00 77 1018.8
20260502070114 58 167 7.0 13.0 0.00 0.00 0.00 77 1018.8
20260502065108 57 129 6.1 14.8 0.00 0.00 0.00 77 1018.8
20260502064104 57 119 7.0 13.0 0.00 0.00 0.00 77 1018.5
20260502063058 57 149 7.0 13.0 0.00 0.00 0.00 77 1018.6
20260502062113 57 138 6.1 12.2 0.00 0.00 0.00 76 1018.7
20260502061129 57 149 8.7 17.4 0.00 0.00 0.00 76 1018.7
20260502060044 57 174 6.1 14.8 0.00 0.00 0.00 76 1018.7
20260502055039 57 146 6.1 13.9 0.00 0.00 0.00 76 1018.5
20260502054034 57 155 8.7 13.9 0.00 0.00 0.00 75 1018.5
20260502053028 57 162 6.1 13.9 0.00 0.00 0.00 76 1018.4
20260502052023 57 127 6.1 11.3 0.00 0.00 0.00 75 1018.6
20260502051018 57 186 6.1 13.0 0.00 0.00 0.00 75 1018.6
20260502050115 57 149 6.1 12.2 0.00 0.00 0.00 75 1018.5
20260502045150 57 96 6.1 11.3 0.00 0.00 0.00 75 1018.7
20260502044105 57 121 5.2 9.6 0.00 0.00 0.00 75 1018.7
20260502043058 57 134 4.3 9.6 0.00 0.00 0.00 75 1018.9
20260502042113 57 140 2.6 7.8 0.00 0.00 0.00 75 1019.0
20260502041048 57 122 4.3 7.0 0.00 0.00 0.00 75 1018.9
20260502040105 58 135 4.3 7.8 0.00 0.00 0.00 75 1018.9
20260502035058 58 153 4.3 9.6 0.00 0.00 0.00 75 1019.1
20260502034033 58 200 4.3 7.8 0.00 0.00 0.00 75 1019.1
20260502033029 57 153 3.5 6.1 0.00 0.00 0.00 76 1019.3
20260502032024 57 191 3.5 7.0 0.00 0.00 0.00 76 1019.2
20260502031018 57 152 1.7 3.5 0.00 0.00 0.00 77 1019.2
20260502030113 57 198 1.7 3.5 0.00 0.00 0.00 77 1019.0
20260502025108 57 70 0.9 5.2 0.00 0.00 0.00 77 1019.0
20260502024123 57 113 0.0 1.7 0.00 0.00 0.00 76 1019.1
20260502023059 57 124 0.0 1.7 0.00 0.00 0.00 76 1019.2